Regional Weather Roundup
Issued by NWS

Home | Current Version | Previous Version | Graphics & Text | Print | Product List | Glossary On
Versions: 1 2 3 4 5 6 7 8 9 10 11 12 13 14 15 16 17 18 19 20 21 22 23 24 25 26 27 28 29 30 31 32 33 34 35 36 37 38 39 40 41 42 43 44 45 46 47 48 49 50
000
ASUS43 KMKX 200421
RWRWI

WISCONSIN REGIONAL WEATHER ROUNDUP
NATIONAL WEATHER SERVICE MILWAUKEE/SULLIVAN WI
1100 PM CDT FRI SEP 19 2014

NOTE: "FAIR" INDICATES FEW OR NO CLOUDS BELOW 12,000 FEET WITH NO
SIGNIFICANT WEATHER AND/OR OBSTRUCTIONS TO VISIBILITY.

WIZ001-002-006>008-014>016-023>028-200500-
NORTHWEST WISCONSIN

CITY           SKY/WX    TMP DP  RH WIND       PRES   REMARKS
SUPERIOR ARPT  CLOUDY    60  60 100 S6        29.62F FOG
ASHLAND        CLOUDY    66  60  81 SW7       29.65S
HAYWARD        CLOUDY    67  62  84 S10       29.68S
SIREN          CLEAR     63  61  95 S6        29.66S
RICE LAKE      CLOUDY    68  63  84 S10       29.70S
LADYSMITH      MOCLDY    65  60  83 S12       29.73S
EAU CLAIRE     CLOUDY    68  62  81 SW10      29.71F
MENOMONIE      MOCLDY    68  64  85 S10       29.71R
NEW RICHMOND   MOCLDY    70  67  91 S9        29.68R
OSCEOLA        PTCLDY    68  67  96 S6        29.68F
$$

WIZ003>005-009-010-017-018-200500-
NORTH CENTRAL WISCONSIN

CITY           SKY/WX    TMP DP  RH WIND       PRES   REMARKS
WOODRUFF       CLOUDY    65  56  73 SW10      29.73R
RHINELANDER    CLOUDY    64  54  69 SW16G26   29.75R
EAGLE RIVER    CLOUDY    65  53  66 SW13G22   29.73R
LAND O LAKES   CLOUDY    65  55  69 SW9G16    29.73S
PHILLIPS       PTCLDY    64  58  82 S8        29.70F
TOMAHAWK       CLOUDY    63  55  75 S5        29.75S
MEDFORD        CLOUDY    63  56  78 S13G20    29.75S
MERRILL        CLOUDY    64  56  74 SW8       29.76S
$$

WIZ029-030-035-036-043>047-200500-
CENTRAL WISCONSIN

CITY           SKY/WX    TMP DP  RH WIND       PRES   REMARKS
WAUSAU         CLOUDY    65  54  67 S18G25    29.76S
MOSINEE        LGT RAIN  63  55  77 S15       29.78S
MARSHFIELD     CLOUDY    65  55  70 SW14      29.78F
STEVENS POINT  CLOUDY    63  52  67 S13       29.80F
WAUPACA        CLOUDY    66  54  65 S7        29.81F
WAUTOMA        CLOUDY    66  53  63 S6        29.84R
WISC RAPIDS    CLOUDY    66  54  65 S13       29.81F
CAMP DOUGLAS   MOCLDY    67  57  70 SW12      29.82S
$$

WIZ011>013-019>022-031-037>040-048>050-200500-
NORTHEAST WISCONSIN

CITY           SKY/WX    TMP DP  RH WIND       PRES   REMARKS
ANTIGO         LGT RAIN  61  54  78 SW15      29.79S
STURGEON BAY   CLOUDY    63  50  63 S15G24    29.81S
GREEN BAY      MOCLDY    66  52  60 S10       29.81F
MANITOWOC      MOCLDY    64  51  62 S10       29.85S
APPLETON       CLOUDY    64  52  63 SW13      29.84S
CLINTONVILLE   MOCLDY    64  52  63 S9        29.79F
OSHKOSH        PTCLDY    65  52  62 SW7       29.85R
$$

WIZ032>034-041-042-053>061-200500-
SOUTHWEST WISCONSIN

CITY           SKY/WX    TMP DP  RH WIND       PRES   REMARKS
LA CROSSE      PTCLDY    70  59  68 S16G28    29.76F
SPARTA         PTCLDY    67  55  65 S6        29.81F
VIROQUA        CLOUDY    66  57  74 SW12G17   29.83S
BOSCOBEL       CLEAR     69  56  62 SW10      29.84S
PRAIRIE DU CHI CLEAR     68  56  64 S8        29.83F
PLATTEVILLE    FAIR      65  55  69 S16G23    29.88F
$$

WIZ056-057-062-063-064-067-068-200500-
SOUTH CENTRAL WISCONSIN

CITY           SKY/WX    TMP DP  RH WIND       PRES   REMARKS
BARABOO/DELLS  CLEAR     66  52  59 SW14G21   29.84R
LONE ROCK      CLEAR     71  54  54 SW8       29.85S
WATERTOWN      CLEAR     63  51  66 S8        29.86F
MADISON        PTCLDY    67  53  61 S13G22    29.86S
MIDDLETON      FAIR      67  52  58 SW14G20   29.86R
MONROE         CLEAR     63  54  72 S17       29.89F
JANESVILLE     CLEAR     64  50  59 SW9       29.90S
$$

WIZ051-052-058>065-066-070>072-200500-
SOUTHEAST WISCONSIN

CITY           SKY/WX    TMP DP  RH WIND       PRES   REMARKS
MILWAUKEE      PTCLDY    64  47  53 S12       29.89F
WAUKESHA       CLEAR     61  45  55 S10       29.90S
MILWAUKEE/TIMM CLEAR     63  45  51 S12G18    29.88F
RACINE         CLEAR     65  47  52 S9        29.92F
BURLINGTON     CLEAR     60  47  61 S12       29.91S
KENOSHA        CLEAR     64  48  56 S13G20    29.92F
FOND DU LAC    CLEAR     65  50  58 SW13      29.84S
SHEBOYGAN      PTCLDY    60  48  64 S10       29.85F
WEST BEND      CLEAR     63  45  51 S12       29.86S
JUNEAU         CLEAR     63  51  64 S13       29.87S
$$

LSZ147-162-200500-
LAKE SUPERIOR

STATION/POSITION TIME  TEMP    WIND        PRES    WAVE
                       AIR SEA DIR/SP/G            HT/PER
                 (UTC) (F)     (DEG/KT/KT) (MB)    (FT/S)
W MID LAKE BUOY  0350   54 48  230/  8/  8 1003.2F   1/ 3
DEVILS ISLAND    0400   61     200/ 10/ 13 1003.0F
PORT WING        0300   60     150/  2/  3 1003.7F
SAXON HARBOR     0300   69     210/  6/  8 1004.1
$$

LMZ867-665-643>646-200500-
LAKE MICHIGAN

STATION/POSITION TIME  TEMP    WIND        PRES    WAVE
                       AIR SEA DIR/SP/G            HT/PER
                 (UTC) (F)     (DEG/KT/KT) (MB)    (FT/S)
N MID LAKE BUOY  0350   62 58  210/ 25/ 31 1008.2F   9/ 8
NORTHPORT PIER   0320   63     170/ 10/ 25 1008.1F
KEWAUNEE LAKESHO 0300   63     190/ 13/ 17 1009.7F
SHEBOYGAN LAKESH 0400   63 54  190/ 20/ 22 1011.0S
PORT WASHINGTON  0240   60     190/  5/ 10 1012.5F
ATWATER BUOY     0400   62     190/ 12/ 16 1013.0F
MILWAUKEE LAKESH 0300   65     190/ 13/ 15   N/A
S MID LAKE BUOY  0350   67 63  180/ 21/ 23 1013.4F   3/ 4
KENOSHA   LAKESH 0400   66     190/  9/ 14 1012.9F
$$

TC  - TEMPERATURE IN CELSIUS
VSB - VISIBILITY IN STATUTE MILES
WCI - WIND CHILL INDEX
HX  - HEAT INDEX




USA.gov is the U.S. government's official web portal to all federal, state and local government web resources and services.